{"data":{"norad_id":52113,"epoch":"2026-05-25T02:45:57.104928Z","epoch_age_seconds":60933,"freshness":"FRESH","line1":"1 52113U 22029AB  26145.11524427 -.00000112  00000+0  11045-4 0  9990","line2":"2 52113  53.2145  96.0324 0001132  81.9060 278.2061 15.08848539232328","mean_motion":15.08848539,"eccentricity":0.0001132,"inclination_deg":53.2145,"raan_deg":96.0324,"arg_perigee_deg":81.906,"mean_anomaly_deg":278.2061,"bstar":1.1045e-5,"rev_number":23232,"period_min":95.437014569691,"perigee_km":538.93418767478,"apogee_km":540.50038988576,"semimajor_km":6917.8542887803,"source":"CELESTRAK","updated_at":"2026-05-25T13:38:17.073631Z"}}